Wind_Speed
39 37 37 36 37 37 38 34 33 27 25 24 21 16 17 16 14 11 10 8 6 6 4 3 5 7 8 7 7 6 5 4 4 5 6 6 7 8 9 10 11 12 12 12 12 12 13 13 13
41 40 38 38 38 37 37 37 38 37 28 27 24 21 18 17 12 11 14 12 7 7 7 3 3 7 8 9 9 8 7 6 6 6 5 6 7 9 10 10 11 11 11 11 12 12 12 13 13
45 43 40 40 37 36 37 41 39 37 31 27 29 25 23 20 15 11 10 10 7 5 5 8 10 10 9 9 8 9 9 7 6 8 8 8 8 9 10 10 11 11 12 13 13 13 13 13 14
49 46 43 40 35 35 37 41 42 39 34 32 31 28 22 20 16 15 11 8 7 6 8 10 13 13 12 12 12 11 11 10 9 9 11 12 12 12 13 13 13 13 13 13 13 13 13 14 14
53 50 47 38 36 34 37 40 42 41 40 37 36 35 29 23 19 17 15 13 12 12 13 12 13 15 15 15 17 17 15 14 13 14 13 13 14 15 16 15 15 15 14 14 14 14 14 13 14
56 52 48 40 37 37 39 40 41 42 44 41 36 35 32 28 22 19 17 16 12 15 18 18 17 19 22 21 20 17 15 14 15 16 16 15 15 16 16 16 17 17 17 17 18 18 19 18 18
57 56 50 44 41 41 42 41 41 44 46 44 41 36 32 28 26 23 16 17 19 15 16 20 23 24 21 19 19 19 19 20 21 20 19 19 20 20 21 21 21 21 21 21 21 22 23 22 21
58 59 53 47 45 43 45 42 40 40 47 46 41 38 34 32 31 28 23 15 15 17 18 21 22 19 20 22 23 24 24 25 25 24 23 23 23 23 23 24 24 24 24 24 24 25 25 26 25
58 61 55 51 48 46 46 43 42 41 43 45 42 40 39 37 36 33 29 29 26 20 19 21 23 24 24 25 28 27 27 27 28 27 25 25 26 26 25 24 25 25 25 27 27 27 28 28 27
64 61 56 52 50 48 49 48 46 43 41 41 41 42 40 38 39 36 33 28 21 23 25 27 28 29 30 32 32 31 29 27 26 27 27 27 28 30 31 30 29 29 28 28 29 31 31 30 32
63 58 57 53 49 50 51 53 49 46 46 45 45 42 41 38 38 39 36 32 32 30 31 30 29 30 30 30 31 31 29 30 29 31 31 32 32 29 30 31 32 32 34 32 33 34 33 34 33
58 54 57 56 56 54 53 54 50 48 50 50 48 46 43 42 41 41 37 32 32 34 32 32 32 33 33 32 32 33 31 33 34 35 35 36 36 37 37 36 36 35 37 36 36 35 35 37 38
52 52 55 52 56 58 59 59 56 52 51 52 51 46 43 41 39 37 37 35 35 35 37 35 35 37 36 36 36 36 35 35 36 38 37 36 38 41 40 39 38 36 36 37 39 40 39 39 40
42 38 51 51 48 54 55 56 57 52 50 48 46 44 42 41 42 42 38 36 38 39 39 41 38 40 39 38 37 38 36 36 38 38 39 40 40 40 40 39 39 38 40 42 42 43 43 42 44
50 29 46 42 34 31 45 53 53 49 52 49 45 43 43 43 44 40 41 41 41 44 45 46 47 42 39 37 36 39 39 39 40 38 40 40 39 39 41 42 45 42 40 41 41 41 44 43 42
36 25 27 27 29 28 28 31 38 43 40 39 38 40 42 43 42 39 41 43 45 47 49 50 48 44 39 37 39 40 42 42 40 37 38 37 43 42 37 40 38 40 43 45 45 46 47 46 46
27 28 29 35 29 27 28 26 28 29 31 32 37 38 39 41 42 45 48 49 50 50 49 49 48 43 43 44 42 40 41 42 39 38 40 40 45 45 42 45 42 45 40 43 46 47 46 45 44
34 31 29 30 29 30 32 32 33 37 38 42 44 46 46 47 43 45 50 50 47 45 46 48 49 50 48 44 43 40 38 36 36 38 40 42 43 42 41 41 43 42 44 43 46 45 46 44 45
27 27 28 29 31 33 36 37 36 38 41 44 45 44 43 39 39 43 49 47 47 46 47 47 48 49 48 45 42 41 39 39 38 40 42 43 44 45 46 46 46 44 43 46 47 48 48 48 49
29 30 30 33 35 36 37 39 39 39 41 41 40 41 41 41 41 42 44 44 45 45 42 42 44 45 45 45 42 40 40 41 42 42 43 45 46 48 48 47 48 49 49 50 51 51 51 49 50
29 29 28 29 33 37 38 39 39 36 38 39 40 39 39 39 39 38 37 33 36 38 38 39 41 42 42 42 44 44 44 44 46 45 46 47 49 50 50 51 50 51 51 51 48 47 44 44 46
25 25 25 26 31 35 36 39 38 39 37 36 37 37 36 35 36 37 38 34 35 36 37 38 41 42 43 44 45 45 45 45 46 47 47 46 48 49 47 47 48 47 45 46 45 45 46 45 45
26 26 26 26 28 30 33 35 33 33 32 31 30 31 35 36 38 39 39 39 39 40 42 44 45 45 44 44 43 41 39 37 40 41 43 42 45 47 48 50 50 50 48 47 48 47 47 48 47
28 29 28 28 29 32 33 34 34 32 32 32 33 35 37 40 40 41 41 42 43 45 46 46 46 45 46 45 43 43 40 41 43 44 44 47 49 50 51 52 52 51 49 48 46 46 46 47 48
31 30 30 30 31 33 31 33 37 34 34 35 36 37 38 40 43 45 46 46 47 48 48 47 43 42 44 46 47 47 46 47 49 47 45 48 49 51 52 53 53 52 51 50 48 46 44 49 51
28 28 28 29 30 32 32 35 38 36 36 37 38 38 39 41 43 44 44 45 46 45 44 43 44 45 46 49 51 52 52 51 52 51 49 51 53 55 55 55 54 55 54 55 55 52 52 52 52
31 32 31 33 35 35 35 34 35 34 33 34 36 38 41 44 45 45 46 47 48 47 46 45 48 49 49 50 53 54 55 57 58 58 58 58 59 58 57 57 55 55 54 57 58 58 62 60 57
31 30 30 31 32 32 34 34 36 33 34 34 35 37 39 40 41 42 41 41 44 47 49 53 55 54 54 54 53 54 57 60 61 61 60 61 62 63 64 65 64 63 60 62 61 64 65 62 58
29 30 31 31 35 35 34 32 26 25 23 25 28 30 31 31 33 35 36 37 38 39 41 43 45 48 54 58 60 62 63 65 65 66 65 65 63 65 69 70 67 63 69 68 66 65 65 67 68
30 26 25 28 26 26 22 21 19 22 25 28 31 33 34 35 37 39 40 42 44 45 46 46 47 47 49 51 54 56 59 60 61 66 69 64 65 67 73 67 67 66 65 66 68 69 70 71 70
Wind_Direction
213 219 219 218 214 209 203 208 219 211 204 200 204 205 197 192 181 168 168 161 129 118 146 94 40 21 5 9 20 28 34 27 9 7 11 4 2 1 356 355 355 354 354 353 351 353 357 357 357
213 215 220 222 217 208 207 211 217 214 209 200 205 208 204 195 204 200 194 187 175 159 178 220 324 340 346 344 346 346 352 352 348 346 337 331 336 339 343 345 345 342 341 339 340 343 343 341 342
213 213 218 221 219 209 207 213 220 222 216 210 208 210 207 223 226 230 210 212 211 220 265 293 302 322 329 332 320 323 323 321 330 325 318 315 317 320 320 320 319 320 321 321 322 325 326 328 329
213 212 216 219 219 214 216 221 225 227 225 220 212 209 205 217 237 249 233 219 230 255 287 297 303 309 311 304 306 311 313 312 309 315 315 311 310 312 307 304 303 303 300 302 309 316 320 322 325
213 212 212 214 215 218 223 226 225 228 229 227 224 218 223 229 250 252 244 247 257 276 285 287 298 299 296 302 307 309 311 311 306 305 303 303 306 301 298 292 290 291 294 298 303 305 306 310 314
216 212 209 209 210 217 224 227 224 226 228 230 231 228 233 240 246 255 255 255 265 276 267 271 277 299 294 302 309 305 304 303 304 302 302 299 295 291 286 281 281 285 292 295 296 297 298 297 298
216 213 207 206 206 214 222 226 226 224 227 232 237 240 240 238 240 240 250 260 253 275 263 266 276 292 291 296 299 298 298 297 297 294 291 287 283 280 278 276 278 283 284 283 285 287 291 292 293
222 213 205 204 207 213 221 224 226 228 226 232 237 243 247 246 245 247 254 260 269 280 267 264 274 278 282 287 290 293 297 295 290 285 282 279 273 271 272 276 277 279 280 282 283 284 288 290 290
220 216 206 204 206 212 221 222 222 229 228 230 238 241 246 251 254 254 254 261 269 267 259 260 264 270 278 282 285 289 291 289 281 278 277 275 274 271 269 267 268 270 275 279 280 280 284 284 279
221 216 208 207 209 210 219 220 218 224 227 231 231 235 240 245 252 256 254 251 261 264 263 264 272 279 281 282 282 282 283 280 274 275 274 272 272 273 271 267 266 267 268 272 275 277 277 272 278
212 210 210 209 211 212 218 223 221 221 226 228 231 233 237 238 248 253 255 255 261 264 270 270 271 273 275 271 269 270 272 273 273 276 275 277 277 275 270 267 268 269 270 271 272 274 275 277 279
213 206 210 208 207 212 217 223 223 222 227 227 232 231 236 238 236 242 249 252 253 256 260 261 268 273 275 274 275 277 278 277 275 275 273 276 276 275 271 270 270 273 274 273 272 273 275 276 280
209 200 209 213 214 210 216 222 223 223 226 232 234 238 241 245 249 251 253 255 254 251 255 261 268 273 274 274 274 274 273 270 270 270 270 268 268 271 271 272 272 271 268 270 272 272 274 278 281
222 214 207 204 205 211 217 225 230 226 228 235 242 245 248 251 253 254 255 252 250 255 266 271 274 273 273 273 270 272 273 272 271 270 270 270 267 266 265 268 268 269 272 275 275 275 277 279 282
238 239 211 213 211 199 217 223 232 228 232 235 244 247 247 251 253 253 256 259 259 263 269 271 268 270 272 273 274 274 273 271 270 269 266 267 263 266 267 270 270 268 268 270 272 279 281 283 282
241 247 227 225 221 222 224 213 226 228 230 232 238 244 248 250 252 258 263 268 272 272 272 273 276 278 274 267 268 271 272 272 271 266 263 264 265 267 259 265 259 265 265 268 269 275 279 281 279
236 236 235 246 247 246 250 241 240 246 246 253 255 254 252 256 259 260 264 265 267 270 276 278 279 278 278 278 273 270 269 271 270 267 263 256 262 260 265 261 269 268 272 271 272 276 277 278 277
227 234 236 241 240 240 239 237 234 234 238 240 244 245 247 249 255 261 263 266 269 273 274 278 284 286 285 283 283 279 273 272 270 267 267 267 269 270 268 266 267 269 270 273 272 274 275 275 278
222 221 221 226 231 231 234 235 233 236 237 239 241 246 251 256 255 255 261 266 269 272 276 280 283 284 284 282 278 278 274 272 269 269 270 270 270 271 273 273 274 273 272 271 271 272 272 272 276
215 216 215 220 228 231 236 238 238 238 242 247 250 252 253 253 252 255 262 269 273 276 277 278 278 279 280 281 278 275 273 272 271 268 268 270 272 274 275 276 274 274 273 272 271 271 272 273 273
219 221 218 221 227 234 237 243 249 250 250 253 255 260 261 262 264 264 264 265 268 269 269 268 271 273 273 273 274 274 273 273 271 271 270 272 272 272 273 272 272 273 274 276 277 277 277 274 274
224 226 227 226 233 237 240 245 247 251 254 255 258 259 261 263 262 262 261 257 260 261 261 262 261 263 265 264 265 266 267 269 271 272 272 269 268 270 270 271 271 270 271 273 274 276 278 278 276
227 229 228 230 235 241 245 247 246 251 253 253 252 256 258 253 252 256 258 258 258 258 256 255 257 261 266 269 268 267 267 263 262 262 266 263 267 269 270 270 272 272 272 273 274 274 274 275 276
231 234 231 230 232 237 241 250 252 252 254 254 254 255 256 259 257 254 253 253 252 253 255 257 262 265 267 267 264 265 267 265 265 266 265 263 263 263 264 266 269 272 272 274 277 281 282 282 280
234 238 242 240 237 242 246 248 255 251 253 256 257 256 256 258 261 263 263 263 263 262 263 265 264 263 263 265 264 264 265 266 269 271 265 262 262 262 263 268 271 273 277 276 274 274 279 282 277
238 239 240 244 242 244 245 247 252 257 256 259 260 261 261 261 261 262 263 265 267 268 269 267 263 262 260 262 265 267 267 268 269 270 268 266 264 263 267 270 273 273 273 273 272 275 277 282 284
235 237 242 246 248 251 253 255 258 262 265 262 260 261 261 262 263 262 264 266 267 266 264 263 264 262 262 263 265 267 268 269 269 269 269 270 270 269 270 273 275 274 278 277 276 279 281 281 280
239 241 244 249 256 257 260 261 267 271 271 271 270 268 267 266 267 268 266 265 265 265 263 260 257 255 257 257 259 261 264 265 266 268 270 270 271 273 272 274 274 272 278 279 277 281 287 284 281
243 248 251 256 261 268 271 271 273 274 272 271 268 268 269 272 274 273 272 271 267 267 270 268 264 262 257 254 255 259 263 262 265 267 269 268 271 273 275 274 273 273 277 279 280 283 283 285 288
252 254 250 250 258 261 266 264 279 280 275 272 273 276 280 280 277 275 273 271 271 271 270 269 267 264 260 262 262 264 266 267 265 269 269 269 267 271 273 279 277 273 272 276 280 281 281 283 284
Height
5875 5881 5885 5889 5894 5896 5899 5900 5898 5901 5907 5909 5912 5914 5915 5916 5918 5921 5920 5921 5923 5924 5927 5927 5928 5928 5929 5928 5927 5927 5926 5926 5926 5925 5925 5926 5926 5925 5925 5925 5925 5925 5924 5923 5922 5921 5920 5918 5916
5869 5874 5880 5883 5888 5893 5897 5897 5895 5899 5903 5908 5911 5913 5915 5916 5918 5919 5919 5920 5922 5923 5925 5926 5927 5928 5928 5927 5927 5927 5926 5926 5925 5925 5925 5925 5925 5925 5925 5925 5924 5924 5923 5922 5921 5919 5918 5916 5915
5863 5868 5875 5877 5884 5891 5894 5893 5892 5896 5899 5904 5908 5910 5913 5916 5918 5919 5919 5920 5922 5923 5925 5925 5926 5926 5926 5925 5926 5926 5925 5925 5925 5925 5925 5925 5924 5923 5923 5922 5922 5922 5921 5921 5920 5918 5917 5915 5913
5856 5862 5869 5874 5883 5887 5889 5887 5889 5893 5896 5901 5905 5907 5910 5913 5915 5917 5918 5918 5920 5921 5922 5923 5924 5924 5923 5923 5924 5924 5924 5924 5924 5924 5924 5924 5923 5922 5921 5921 5920 5920 5919 5918 5918 5917 5916 5914 5912
5849 5855 5861 5871 5878 5884 5882 5882 5886 5890 5893 5897 5902 5905 5908 5910 5913 5914 5915 5917 5918 5919 5920 5920 5921 5921 5921 5922 5922 5922 5922 5922 5922 5922 5921 5921 5921 5920 5919 5918 5918 5917 5917 5916 5915 5914 5913 5912 5911
5843 5849 5856 5867 5874 5877 5877 5877 5882 5886 5890 5894 5898 5902 5905 5908 5910 5911 5912 5914 5915 5915 5916 5917 5918 5918 5919 5919 5919 5919 5919 5919 5919 5919 5918 5918 5918 5917 5916 5915 5914 5913 5913 5913 5913 5912 5911 5909 5908
5837 5842 5851 5860 5866 5869 5870 5873 5878 5883 5887 5890 5894 5899 5903 5905 5907 5907 5910 5911 5912 5912 5913 5914 5915 5914 5914 5914 5915 5915 5916 5916 5916 5916 5915 5915 5914 5913 5913 5912 5911 5910 5909 5908 5907 5906 5906 5905 5904
5832 5836 5845 5853 5858 5863 5864 5870 5875 5878 5882 5887 5891 5894 5897 5900 5903 5905 5907 5908 5908 5910 5910 5910 5910 5910 5910 5911 5911 5911 5911 5912 5911 5911 5910 5909 5908 5908 5908 5907 5907 5905 5904 5904 5903 5901 5900 5900 5901
5822 5831 5839 5846 5851 5855 5858 5865 5870 5872 5877 5883 5887 5890 5892 5893 5896 5899 5902 5904 5906 5906 5906 5906 5906 5906 5906 5906 5907 5907 5907 5905 5905 5905 5904 5903 5903 5902 5902 5900 5900 5899 5899 5899 5898 5897 5896 5895 5894
5814 5824 5833 5840 5844 5847 5852 5857 5862 5867 5871 5875 5879 5883 5886 5889 5891 5893 5896 5899 5901 5901 5901 5901 5902 5902 5902 5902 5901 5902 5901 5900 5900 5900 5900 5898 5897 5897 5896 5895 5894 5893 5893 5892 5892 5890 5890 5889 5889
5807 5816 5825 5831 5836 5842 5844 5848 5855 5862 5863 5868 5871 5876 5880 5884 5887 5889 5890 5892 5894 5896 5897 5897 5896 5896 5897 5897 5896 5895 5895 5895 5894 5894 5894 5893 5892 5891 5890 5889 5888 5888 5888 5887 5886 5884 5883 5883 5883
5800 5808 5813 5817 5822 5833 5837 5842 5850 5855 5857 5860 5864 5868 5874 5877 5880 5882 5885 5888 5889 5890 5891 5891 5891 5891 5890 5889 5888 5887 5887 5888 5888 5887 5887 5886 5885 5884 5883 5882 5883 5882 5882 5881 5879 5878 5879 5878 5879
5790 5800 5808 5808 5814 5821 5828 5833 5839 5848 5851 5853 5857 5862 5867 5872 5875 5876 5877 5880 5882 5883 5884 5886 5886 5886 5885 5884 5883 5882 5882 5882 5882 5881 5880 5879 5878 5877 5877 5877 5877 5875 5875 5874 5873 5872 5873 5873 5873
5787 5787 5797 5802 5809 5816 5822 5829 5832 5841 5845 5849 5853 5858 5861 5864 5866 5867 5870 5872 5874 5874 5875 5875 5877 5877 5877 5877 5876 5876 5876 5876 5875 5875 5874 5872 5871 5869 5870 5870 5869 5868 5868 5867 5867 5866 5866 5867 5867
5779 5786 5788 5797 5803 5809 5816 5822 5827 5836 5837 5844 5848 5850 5853 5856 5857 5859 5861 5863 5867 5868 5868 5868 5867 5869 5870 5868 5868 5866 5866 5867 5866 5868 5866 5864 5864 5863 5864 5864 5864 5860 5860 5859 5860 5859 5859 5860 5858
5777 5783 5786 5793 5795 5802 5808 5818 5822 5826 5831 5834 5837 5841 5844 5847 5850 5853 5854 5855 5855 5855 5855 5856 5859 5860 5862 5861 5860 5857 5856 5857 5859 5859 5857 5857 5856 5854 5853 5855 5855 5853 5851 5852 5852 5851 5851 5851 5850
5776 5781 5785 5789 5792 5797 5803 5809 5815 5820 5823 5827 5830 5832 5834 5837 5841 5844 5845 5846 5846 5846 5847 5847 5847 5851 5851 5850 5852 5852 5850 5851 5850 5849 5848 5846 5846 5844 5844 5847 5846 5844 5844 5844 5844 5843 5843 5841 5841
5772 5778 5783 5787 5791 5794 5798 5804 5810 5814 5818 5820 5822 5823 5826 5830 5836 5836 5833 5835 5837 5838 5838 5837 5836 5834 5835 5838 5836 5838 5839 5839 5839 5837 5837 5836 5835 5835 5837 5839 5837 5837 5836 5835 5834 5834 5834 5834 5833
5767 5773 5778 5782 5785 5788 5791 5794 5800 5803 5808 5810 5812 5816 5820 5827 5829 5827 5824 5827 5827 5829 5830 5829 5828 5826 5825 5827 5827 5827 5827 5828 5829 5829 5828 5827 5826 5826 5827 5828 5826 5825 5826 5825 5825 5825 5824 5824 5824
5764 5769 5774 5777 5778 5781 5784 5786 5790 5796 5800 5804 5807 5810 5813 5815 5818 5818 5819 5820 5819 5819 5819 5818 5817 5816 5816 5815 5816 5818 5818 5819 5819 5820 5819 5818 5818 5817 5817 5816 5815 5815 5816 5816 5815 5814 5815 5815 5814
5758 5763 5769 5773 5775 5777 5780 5781 5784 5790 5793 5795 5797 5800 5802 5804 5806 5807 5808 5809 5809 5809 5809 5808 5808 5808 5809 5808 5807 5808 5808 5809 5809 5809 5809 5808 5807 5805 5806 5805 5804 5804 5805 5804 5804 5803 5803 5803 5803
5753 5758 5763 5768 5769 5772 5775 5777 5780 5782 5786 5788 5791 5793 5795 5795 5796 5797 5797 5799 5800 5800 5800 5800 5800 5800 5799 5799 5800 5799 5799 5798 5796 5795 5797 5796 5794 5793 5794 5794 5794 5794 5795 5795 5794 5794 5793 5794 5795
5748 5751 5757 5761 5764 5766 5769 5771 5775 5776 5778 5781 5783 5784 5784 5786 5787 5788 5789 5791 5792 5791 5791 5791 5791 5791 5790 5789 5789 5788 5789 5788 5786 5786 5785 5784 5784 5783 5782 5781 5782 5782 5783 5783 5783 5783 5783 5782 5782
5742 5745 5750 5755 5758 5760 5761 5762 5765 5768 5770 5772 5774 5775 5775 5775 5777 5778 5779 5780 5782 5781 5782 5782 5781 5779 5778 5778 5778 5776 5777 5778 5776 5775 5774 5773 5772 5771 5770 5769 5769 5770 5770 5770 5770 5771 5770 5770 5770
5737 5741 5745 5749 5750 5752 5755 5757 5757 5760 5761 5763 5764 5766 5767 5767 5767 5767 5768 5769 5770 5770 5771 5771 5771 5770 5768 5767 5766 5766 5766 5765 5764 5764 5763 5761 5760 5758 5757 5756 5756 5757 5758 5758 5759 5758 5757 5756 5756
5731 5735 5739 5740 5743 5745 5747 5749 5748 5751 5754 5755 5756 5756 5757 5757 5757 5757 5757 5757 5757 5758 5758 5758 5758 5757 5757 5756 5755 5754 5754 5753 5752 5751 5750 5749 5748 5747 5746 5745 5745 5744 5744 5743 5743 5744 5745 5743 5742
5725 5728 5732 5732 5735 5737 5739 5742 5742 5743 5744 5746 5746 5746 5746 5746 5746 5746 5746 5745 5745 5745 5746 5746 5745 5743 5743 5742 5740 5740 5739 5739 5739 5738 5737 5737 5735 5735 5734 5733 5732 5730 5729 5728 5727 5727 5726 5727 5727
5718 5722 5724 5725 5726 5728 5730 5733 5735 5735 5733 5733 5733 5734 5735 5734 5734 5734 5734 5734 5733 5732 5731 5730 5730 5730 5730 5729 5728 5727 5726 5726 5725 5725 5723 5722 5720 5720 5719 5718 5717 5715 5715 5713 5712 5711 5708 5706 5708
5711 5714 5717 5720 5720 5720 5722 5725 5726 5726 5726 5725 5724 5724 5726 5726 5726 5725 5723 5722 5721 5720 5720 5720 5719 5717 5716 5715 5713 5712 5712 5711 5710 5709 5708 5706 5705 5703 5702 5701 5700 5699 5698 5697 5695 5694 5694 5692 5688
5705 5708 5710 5711 5715 5714 5716 5720 5720 5720 5718 5718 5717 5717 5716 5716 5715 5714 5713 5712 5711 5710 5709 5708 5707 5706 5705 5703 5702 5700 5698 5696 5694 5692 5690 5689 5688 5685 5684 5681 5680 5679 5680 5679 5679 5678 5677 5675 5675